DW1735 Weather Reports


time (UTC)temp
C
wind
direction
speed
KPH
gust
KPH
rain 1hr
cm
rain 24hr
cm
rain mn
cm
humidity
%
barometer
mb
20190616124512 10 15 1.6 3.2 0.00 0.00 0.00 94 1018.7
20190616123009 10 15 1.6 4.8 0.00 0.00 0.00 93 1018.6
20190616121509 10 15 0.0 3.2 0.00 0.00 0.00 93 1018.6
20190616120003 10 15 1.6 4.8 0.00 0.00 0.00 93 1018.5
20190616114501 10 15 1.6 4.8 0.00 0.00 0.00 93 1018.3
20190616113216 10 15 0.0 3.2 0.00 0.00 0.00 93 1018.2
20190616111646 11 15 1.6 3.2 0.00 0.00 0.00 93 1018.1
20190616110140 11 15 0.0 3.2 0.00 0.00 0.00 92 1018.1
20190616104650 11 15 1.6 4.8 0.00 0.00 0.00 93 1018.1
20190616103133 11 15 3.2 6.4 0.00 0.00 0.00 92 1018.1
20190616101652 11 15 3.2 4.8 0.00 0.00 0.00 93 1017.9
20190616100131 11 15 1.6 4.8 0.00 0.00 0.00 92 1018.0
20190616094626 11 15 0.0 4.8 0.00 0.00 0.00 91 1017.9
20190616093106 11 15 1.6 4.8 0.00 0.00 0.00 91 1017.8
20190616091643 11 15 1.6 4.8 0.00 0.00 0.00 90 1017.7
20190616090158 11 15 1.6 4.8 0.00 0.00 0.00 89 1017.7
20190616084655 12 15 0.0 3.2 0.00 0.00 0.00 88 1017.7
20190616083112 12 15 0.0 0.0 0.00 0.00 0.00 87 1017.6
20190616080054 12 15 1.6 4.8 0.00 0.00 0.00 86 1017.9
20190616074604 13 15 0.0 0.0 0.00 0.00 0.00 86 1017.8
20190616073130 13 15 1.6 4.8 0.00 0.00 0.00 86 1017.8
20190616071549 13 15 3.2 6.4 0.00 0.00 0.00 84 1017.8
20190616070041 13 15 3.2 6.4 0.00 0.00 0.00 84 1017.8
20190616064540 13 15 1.6 8.0 0.00 0.00 0.00 84 1017.8
20190616063031 13 15 1.6 8.0 0.00 0.00 0.00 83 1017.9
20190616061603 14 23 6.4 12.9 0.00 0.00 0.00 82 1017.9
20190616060057 15 263 1.6 9.7 0.00 0.00 0.00 79 1017.9
20190616054650 16 260 6.4 16.1 0.00 0.00 0.00 75 1017.8
20190616053025 17 256 1.6 4.8 0.00 0.00 0.00 69 1017.7
20190616051525 17 256 1.6 4.8 0.00 0.00 0.00 66 1017.6
20190616050047 18 256 3.2 6.4 0.00 0.00 0.00 64 1017.6
20190616044525 18 256 0.0 3.2 0.00 0.00 0.00 62 1017.5
20190616043026 19 256 1.6 4.8 0.00 0.00 0.00 62 1017.4
20190616041522 20 256 0.0 0.0 0.00 0.00 0.00 61 1017.4
20190616040036 21 256 0.0 0.0 0.00 0.00 0.00 57 1017.3
20190616034526 21 256 1.6 3.2 0.00 0.00 0.00 56 1017.4
20190616033118 22 256 1.6 4.8 0.00 0.00 0.00 53 1017.3
20190616031524 22 256 1.6 3.2 0.00 0.00 0.00 53 1017.4
20190616030023 22 256 3.2 6.4 0.00 0.00 0.00 52 1017.4
20190616024555 22 256 3.2 6.4 0.00 0.00 0.00 52 1017.4
20190616023046 22 256 3.2 6.4 0.00 0.00 0.00 51 1017.4
20190616021519 22 256 4.8 9.7 0.00 0.00 0.00 50 1017.4
20190616020031 22 256 3.2 9.7 0.00 0.00 0.00 49 1017.4
20190616014512 22 255 3.2 11.3 0.00 0.00 0.00 51 1017.4
20190616013002 22 256 4.8 11.3 0.00 0.00 0.00 50 1017.4
20190616011730 22 257 4.8 11.3 0.00 0.00 0.00 49 1017.5
20190616010153 22 240 6.4 12.9 0.00 0.00 0.00 50 1017.6
20190616004737 22 269 6.4 11.3 0.00 0.00 0.00 49 1017.7
20190616003237 23 265 8.0 12.9 0.00 0.00 0.00 49 1017.8
20190616001626 22 229 8.0 11.3 0.00 0.00 0.00 52 1017.7
20190616000147 22 244 4.8 14.5 0.00 0.00 0.00 53 1017.9
20190615234639 22 268 9.7 14.5 0.00 0.00 0.00 52 1017.9
20190615233157 22 267 8.0 12.9 0.00 0.00 0.00 55 1018.0
20190615231629 21 265 6.4 11.3 0.00 0.00 0.00 60 1018.2
20190615230045 21 266 4.8 11.3 0.00 0.00 0.00 60 1018.3
20190615224544 20 270 6.4 12.9 0.00 0.00 0.00 61 1018.5
20190615223146 20 244 8.0 14.5 0.00 0.00 0.00 64 1018.5
20190615221547 20 244 6.4 12.9 0.00 0.00 0.00 63 1018.6
20190615220112 20 227 8.0 14.5 0.00 0.00 0.00 65 1018.6
20190615214544 20 261 6.4 12.9 0.00 0.00 0.00 66 1018.7
20190615213048 20 269 8.0 14.5 0.00 0.00 0.00 66 1018.7
20190615211553 20 234 6.4 12.9 0.00 0.00 0.00 66 1018.8
20190615210044 19 254 4.8 12.9 0.00 0.00 0.00 67 1019.0
20190615204543 19 236 4.8 12.9 0.00 0.00 0.00 66 1019.1
20190615203024 18 252 4.8 12.9 0.00 0.00 0.00 66 1019.3
20190615201547 18 284 6.4 12.9 0.00 0.00 0.00 70 1019.4
20190615200013 17 266 4.8 11.3 0.00 0.00 0.00 70 1019.5
20190615193004 16 293 8.0 16.1 0.00 0.00 0.00 77 1019.6
20190615191630 16 238 8.0 12.9 0.00 0.00 0.00 79 1019.6
20190615190220 15 296 8.0 16.1 0.00 0.00 0.00 79 1019.7
20190615184643 15 283 8.0 17.7 0.00 0.00 0.00 81 1019.8
20190615183238 15 231 9.7 17.7 0.00 0.00 0.00 81 1019.8
20190615181633 15 236 8.0 16.1 0.00 0.00 0.00 83 1019.7
20190615180056 14 296 4.8 12.9 0.00 0.00 0.00 84 1019.8
20190615174554 13 241 1.6 8.0 0.00 0.00 0.00 87 1019.7
20190615173149 13 286 9.7 14.5 0.00 0.00 0.00 87 1019.7
20190615170047 13 238 4.8 9.7 0.00 0.00 0.00 87 1019.7
20190615164549 13 227 6.4 8.0 0.00 0.00 0.00 88 1019.7
20190615163111 13 227 4.8 8.0 0.00 0.00 0.00 88 1019.6
20190615161543 12 227 3.2 8.0 0.00 0.00 0.00 89 1019.5
20190615160052 12 227 1.6 6.4 0.00 0.00 0.00 89 1019.5
20190615154545 12 227 3.2 8.0 0.00 0.00 0.00 90 1019.6
20190615151535 12 227 4.8 8.0 0.00 0.00 0.00 91 1019.6
20190615150025 11 227 3.2 6.4 0.00 0.00 0.00 91 1019.6
20190615144544 11 227 3.2 9.7 0.00 0.00 0.00 92 1019.5
20190615143025 11 227 0.0 6.4 0.00 0.00 0.00 92 1019.5
20190615141516 11 227 3.2 6.4 0.00 0.00 0.00 92 1019.4
20190615140054 11 227 3.2 6.4 0.00 0.00 0.00 93 1019.4
20190615134528 11 227 3.2 6.4 0.00 0.00 0.00 93 1019.3
20190615133013 11 227 1.6 4.8 0.00 0.00 0.00 93 1019.4
20190615131506 11 227 1.6 4.8 0.00 0.00 0.00 93 1019.4
20190615130008 11 227 0.0 4.8 0.00 0.00 0.00 93 1019.4